DELTA 1 DEB, 10710

Orbit data source: Space-Track

DELTA 1 DEB, 10710 is space debris in LEO originally from a launch on Thu, 29 Jul 1976 UTC launched from the Air Force Western Test Range (AFWTR). Debris objects in space refer to the collection of defunct objects orbiting the Earth. Examples of debris include non-operational satellites, rocket bodies, and fragments generated from explosions, collisions, or faulty payload assembly.

Loading next visibility...
Identifier
10710, 1976-077AF
Orbit
LEO
Country
Flag of USUS
Related business
Manufacturer
Unknown
Mission
Spacecraft
Bus & Motor
Unknown
Mass
Unknown
Launch date (UTC)
1976-07-29 (49 years ago)
Launch vehicle
Unknown
Launch site
Air Force Western Test Range (AFWTR)
Object type
Payload
Rocket body
Debris
Shape & HBR
Unknown shape, 0.1 m
Radar Cross Section
Small (<0.1 m²)

Expand to show TLE details & history
Last TLE update: 19 hours ago

TLE from 19 hours ago
0 DELTA 1 DEB
1 10710U 76077AF  25352.96847632  .00000064  00000-0  11632-2 0  9993
2 10710 101.7648 161.0848 0259362   3.8772 147.5269 11.99245734131172
Epoch: 2025-12-18T23:14Z
TLE epoch observation values (Epoch: 2025-12-18T23:14:36.354Z)
Latitude
26.46269°
Longitude
-89.4604°
Altitude
1,865.061 km
Speed
6.88 km/s
True Right ascension
23h 08m 01s
True Declination
26° 20' 39"
Sunlit
Object was in daylight at epoch
Visualization orbit readout
Latitude
Unknown
Longitude
Unknown
Altitude
Unknown
Speed
Unknown
Apparent Right ascension
Unknown
Apparent Declination
Unknown
Sunlit
N/A
Visualization observer readout
Local Sidereal Time
17:24:54
Azimuth
Unknown
Elevation
Unknown
Doppler factor
Unknown
Orbital elements
Apogee altitude
1,890.897 km
Perigee altitude
1,472.806 km
Semi-major axis
8,059.989 km
Eccentricity
0.02594
Inclination
101.7648°
RAAN
161.0848°
Arg. of periapsis
3.8772°
True anomaly
149.0799°
Mean anomaly
147.5269°
Eccentric anomaly
148.3076°
Mean motion
2.99945 °/min
Orbital period
120.02 mins
BSTAR
0.0011632
Loading maneuver chart data...
Computing Atmospheric mass density...
Loading historical data...
Loading historical data...
Loading historical data...
Loading historical data...
Loading historical data...
Loading historical data...
Loading historical data...

Documentation

Showing up to 5 results
|